CZ-6A DEB, 60681

Orbit data source: Space-Track

CZ-6A DEB, 60681 is space debris in LEO originally from a launch on Tue, 06 Aug 2024 UTC launched from the Taiyaun Space Center, China (TSC). Debris objects in space refer to the collection of defunct objects orbiting the Earth. Examples of debris include non-operational satellites, rocket bodies, and fragments generated from explosions, collisions, or faulty payload assembly.

Loading next visibility...
Identifier
60681, 2024-140CJ
Orbit
LEO
Country
Flag of CNCN / PRC
Related business
Manufacturer
SAST
Mission
Spacecraft
Bus & Motor
Unknown
Mass
Unknown
Launch date (UTC)
2024-08-06 (2 years ago)
Launch vehicle
Unknown
Launch site
Taiyaun Space Center, China (TSC)
Object type
Payload
Rocket body
Debris
Shape & HBR
Unknown shape, 0.1 m
Radar Cross Section
Medium (>0.1 m² and <1 m²)

Expand to show TLE details & history
Last TLE update: 13 hours ago

TLE from 13 hours ago
0 CZ-6A DEB
1 60681U 24140CJ  26171.31311333  .00000331  00000-0  22703-3 0  9991
2 60681  88.9960 277.7078 0180245 276.1304  81.9360 13.90220456 94477
Epoch: 2026-06-20T07:30Z
TLE epoch observation values (Epoch: 2026-06-20T07:30:52.991Z)
Latitude
-0.00008°
Longitude
-103.54253°
Altitude
914.729 km
Speed
7.403 km/s
True Right ascension
18h 30m 49s
True Declination
0° 00' 00"
Sunlit
Object was in full shadow at epoch
Visualization orbit readout
Latitude
Unknown
Longitude
Unknown
Altitude
Unknown
Speed
Unknown
Apparent Right ascension
Unknown
Apparent Declination
Unknown
Sunlit
N/A
Visualization observer readout
Local Sidereal Time
07:23:29
Azimuth
Unknown
Elevation
Unknown
Doppler factor
Unknown
Orbital elements
Apogee altitude
1,056.484 km
Perigee altitude
793.218 km
Semi-major axis
7,302.988 km
Eccentricity
0.01802
Inclination
88.996°
RAAN
277.7078°
Arg. of periapsis
276.1304°
True anomaly
83.98708°
Mean anomaly
81.936°
Eccentric anomaly
82.96094°
Mean motion
3.4777 °/min
Orbital period
103.52 mins
BSTAR
0.00022703
Loading maneuver chart data...
Computing Atmospheric mass density...
Loading historical data...
Loading historical data...
Loading historical data...
Loading historical data...
Loading historical data...
Loading historical data...
Loading historical data...

Documentation

Showing up to 5 results
|